This demonstration page uses our WeatherBlox Daily Observations layout. Learn more.

38.89511, -77.03637

Hourly Observations for September 6, 2015

Temp ( °F °C ) Dew Point ( °F °C ) Humidity (%) Winds ( mph kmh ) Pressure ( in mb ) Visibility ( mi km ) Precip ( " mm )
12:52 am 00:52 Mostly Cloudy 73 22.8 63 17.2 71 71 ENE 6 9 30.22 1023 10 16.0934 0 0
1:52 am 01:52 Partly Cloudy 71 21.7 62 16.7 73 73 E 3 6 30.21 1023 10 16.0934 0 0
2:52 am 02:52 Mostly Clear 71 21.7 62 16.7 73 73 ENE 5 7 30.2 1023 10 16.0934 0 0
3:52 am 03:52 Mostly Clear 70 21.1 63 17.2 79 79 E 5 7 30.2 1023 10 16.0934 0 0
4:52 am 04:52 Mostly Clear 69 20.6 63 17.2 81 81 ENE 5 7 30.21 1023 10 16.0934 0 0
5:52 am 05:52 Partly Cloudy 69 20.6 64 17.8 84 84 NNE 6 9 30.2 1023 10 16.0934 0 0
6:52 am 06:52 Mostly Cloudy 69 20.6 64 17.8 84 84 ENE 5 7 30.22 1023 10 16.0934 0 0
7:52 am 07:52 Mostly Cloudy 71 21.7 64 17.8 79 79 NE 5 7 30.22 1023 10 16.0934 0 0
8:52 am 08:52 Mostly Cloudy 71 21.7 64 17.8 79 79 ENE 6 9 30.22 1023 10 16.0934 0 0
9:52 am 09:52 Mostly Cloudy 74 23.3 64 17.8 71 71 ENE 5 7 30.23 1024 10 16.0934 0 0
10:52 am 10:52 Mostly Cloudy 78 25.6 60 15.6 54 54 VRB 5 7 30.23 1024 10 16.0934 0 0
11:52 am 11:52 Mostly Cloudy 81 27.2 57 13.9 44 44 VRB 5 7 30.22 1024 10 16.0934 0 0
12:52 pm 12:52 Mostly Cloudy 84 28.9 53 11.7 34 34 NE 7 11 30.21 1023 10 16.0934 0 0
1:52 pm 13:52 Mostly Cloudy 85 29.4 50 10 30 30 Calm 30.2 1023 10 16.0934 0 0
2:52 pm 14:52 Mostly Cloudy 86 30 50 10 29 29 VRB 5 7 30.18 1022 10 16.0934 0 0
3:52 pm 15:52 Mostly Cloudy 86 30 50 10 29 29 VRB 6 9 30.17 1022 10 16.0934 0 0
4:52 pm 16:52 Partly Cloudy 85 29.4 51 10.6 31 31 E 8 13 30.16 1021 10 16.0934 0 0
5:52 pm 17:52 Mostly Cloudy 84 28.9 50 10 31 31 E 9 15 30.15 1021 10 16.0934 0 0
6:52 pm 18:52 Partly Cloudy 82 27.8 54 12.2 38 38 ESE 7 11 30.16 1021 10 16.0934 0 0
7:52 pm 19:52 Partly Cloudy 79 26.1 55 12.8 44 44 SE 3 6 30.15 1021 10 16.0934 0 0
8:52 pm 20:52 Partly Cloudy 76 24.4 58 14.4 54 54 SSE 5 7 30.15 1021 10 16.0934 0 0
9:52 pm 21:52 Clear 76 24.4 59 15 56 56 S 5 7 30.15 1021 10 16.0934 0 0
10:52 pm 22:52 Mostly Clear 75 23.9 61 16.1 62 62 S 3 6 30.15 1021 10 16.0934 0 0
11:52 pm 23:52 Mostly Clear 74 23.3 60 15.6 62 62 Calm 30.15 1021 10 16.0934 0 0

Powered by AerisWeather